Anchorage Merrill, AK

9:57 AM AKDT on October 23, 2017 (GMT -0800)
Merrill

Weather History for PAMR - December, 2014

Change the Weather History Date:

Thursday, December 25, 2014

  Actual Average Record
Temperature  
Mean Temperature 32 °F -  
Max Temperature 39 °F 20 °F 39 °F (2014)
Min Temperature 26 °F 7 °F -11 °F (2013)
Degree Days  
Heating Degree Days 32    
Moisture  
Dew Point 23 °F    
Average Humidity 71    
Maximum Humidity 89    
Minimum Humidity 45    
Precipitation  
Precipitation 0.10 in - - ()
Snow  
Snow 0.00 in - - ()
Snow Depth 4.00 in    
Sea Level Pressure  
Sea Level Pressure 29.65 in    
Wind  
Wind Speed 6 mph (SSE)    
Max Wind Speed 21 mph    
Max Gust Speed 28 mph    
Visibility 8 miles    
Events Snow    
Averages and records for this station are not official NWS values.
T = Trace of Precipitation, MM = Missing Value Source: NWS Daily Summary

Daily Weather History Graph

Daily Weather History Graph

Search for Another Location

Airport or City:

Trip Planner

Search our weather history database for the weather conditions in past years. The results will help you decide how hot, cold, wet, or windy it might be!

Date:

Astronomy

Dec. 25, 2014 Rise Set
Actual Time 10:15 AM AKST 3:44 PM AKST
Civil Twilight 9:13 AM AKST 4:46 PM AKST
Nautical Twilight 8:13 AM AKST 5:46 PM AKST
Astronomical Twilight 7:19 AM AKST 6:39 PM AKST
Moon 11:39 AM AKST (12/25) 9:52 PM AKST (12/25)
Length of Visible Light 7h 33m
Length of Day
5h 28m
Waxing Crescent, 19% of the Moon is Illuminated
Dec 25
Waxing Crescent
Dec 28
First Quarter
Jan 4
Full
Jan 13
Last Quarter
Jan 20
New

Hourly Weather History & Observations

Time (AKST) Temp. Windchill Dew Point Humidity Pressure Visibility Wind Dir Wind Speed Gust Speed Precip Events Conditions
12:53 AM 28.0 °F 24.2 °F 19.0 °F 69% 29.66 in 10.0 mi NNE 3.5 mph - 0.00 in   Overcast
1:53 AM 27.0 °F 19.5 °F 21.0 °F 78% 29.64 in 10.0 mi North 6.9 mph - N/A   Mostly Cloudy
2:53 AM 26.1 °F 21.9 °F 21.9 °F 84% 29.63 in 10.0 mi NNE 3.5 mph - N/A   Mostly Cloudy
3:53 AM 26.1 °F 20.5 °F 21.9 °F 84% 29.61 in 10.0 mi NW 4.6 mph - N/A   Mostly Cloudy
4:48 AM 26.6 °F 21.2 °F 21.2 °F 80% 29.60 in 10.0 mi NNW 4.6 mph - N/A   Overcast
4:53 AM 27.0 °F - 21.9 °F 81% 29.61 in 10.0 mi Calm Calm - N/A   Overcast
5:53 AM 27.0 °F 20.5 °F 23.0 °F 85% 29.59 in 10.0 mi NE 5.8 mph - N/A   Overcast
6:53 AM 26.1 °F 19.4 °F 23.0 °F 88% 29.55 in 10.0 mi NNE 5.8 mph - N/A   Mostly Cloudy
7:53 AM 26.1 °F 20.5 °F 23.0 °F 88% 29.55 in 10.0 mi NW 4.6 mph - N/A   Overcast
8:53 AM 27.0 °F - 23.0 °F 85% 29.55 in 10.0 mi Calm Calm - N/A   Overcast
9:48 AM 26.6 °F - 23.0 °F 86% 29.57 in 1.5 mi Calm Calm - N/A   Overcast
9:53 AM 26.1 °F - 23.0 °F 88% 29.58 in 1.5 mi Calm Calm - 0.00 in Snow Light Snow
10:53 AM 27.0 °F 23.0 °F 24.1 °F 89% 29.58 in 0.5 mi ENE 3.5 mph - 0.05 in Snow Light Snow
11:53 AM 28.0 °F - 25.0 °F 88% 29.61 in 0.5 mi Calm Calm - 0.03 in Snow Light Snow
12:11 PM 30.0 °F 25.2 °F 27.0 °F 88% 29.61 in 10.0 mi SSE 4.6 mph - 0.02 in Snow Light Snow
12:53 PM 37.0 °F 28.1 °F 30.0 °F 76% 29.64 in 10.0 mi SSW 15.0 mph 27.6 mph 0.02 in Snow Light Snow
1:53 PM 37.0 °F 29.8 °F 30.0 °F 76% 29.65 in 9.0 mi South 10.4 mph - 0.00 in Snow Light Snow
2:00 PM 37.9 °F 29.6 °F 28.0 °F 68% 29.64 in 9.0 mi South 13.8 mph 21.9 mph 0.00 in Snow Light Snow
2:53 PM 39.0 °F 29.0 °F 26.1 °F 60% 29.66 in 9.0 mi South 20.7 mph 27.6 mph 0.00 in   Unknown
3:53 PM 37.9 °F 28.5 °F 23.0 °F 55% 29.69 in 9.0 mi South 17.3 mph 27.6 mph 0.00 in Snow Light Snow
4:53 PM 39.0 °F 31.8 °F 19.9 °F 46% 29.71 in 9.0 mi South 11.5 mph - 0.00 in   Unknown
5:53 PM 37.9 °F 30.5 °F 19.9 °F 48% 29.72 in 9.0 mi South 11.5 mph 20.7 mph 0.00 in Snow Light Snow
6:53 PM 37.9 °F 31.5 °F 21.0 °F 51% 29.74 in 9.0 mi South 9.2 mph - 0.00 in   Clear
7:53 PM 39.0 °F 32.8 °F 21.9 °F 50% 29.75 in 10.0 mi South 9.2 mph - N/A   Partly Cloudy
8:53 PM 39.0 °F 34.8 °F 19.0 °F 45% 29.76 in 10.0 mi SSE 5.8 mph - N/A   Scattered Clouds
9:53 PM 39.0 °F 33.4 °F 19.0 °F 45% 29.78 in 10.0 mi South 8.1 mph - N/A   Mostly Cloudy
10:53 PM 37.9 °F 32.7 °F 19.0 °F 47% 29.79 in 10.0 mi South 6.9 mph 17.3 mph N/A   Mostly Cloudy
11:53 PM 39.0 °F 31.8 °F 21.9 °F 50% 29.81 in 10.0 mi South 11.5 mph 19.6 mph N/A   Mostly Cloudy